Regional Weather Roundup
Issued by NWS

Home | Current Version | Previous Version | Text Only | Print | Product List | Glossary On
Versions: 1 2 3 4 5 6 7 8 9 10 11 12 13 14 15 16 17 18 19 20 21 22 23 24 25 26 27 28 29 30 31 32 33 34 35 36 37 38 39 40 41 42 43 44 45 46 47 48 49 50
000
ASUS43 KTOP 251908
RWRKS

WEATHER ROUNDUP FOR KANSAS
NATIONAL WEATHER SERVICE GOODLAND KS
200 PM CDT FRI JUL 25 2014

NOTE:  "FAIR" INDICATES FEW OR NO CLOUDS BELOW 12,000 FEET WITH NO
SIGNIFICANT WEATHER AND/OR OBSTRUCTIONS TO VISIBILITY.

KSZ001>006-013>018-027>032-041>047-252000-
NORTHWEST KANSAS

CITY           SKY/WX    TMP DP  RH WIND       PRES   REMARKS
GOODLAND       SUNNY     93  61  34 N16       29.96F
HAYS           SUNNY     97  64  34 SW3       29.80F HX  99
HILL CITY      SUNNY    102  58  23 NE8       29.82R HX 102
RUSSELL        SUNNY     99  63  30 S20       29.78F HX 101
$$

KSZ061>065-074>080-084>089-252000-
SOUTHWEST KANSAS

CITY           SKY/WX    TMP DP  RH WIND       PRES   REMARKS
DODGE CITY     SUNNY     98  57  25 SW14G26   29.87S HX  97
ELKHART          N/A    100  59  25 SE7         N/A  HX 100
GARDEN CITY    SUNNY     97  60  29 SW12      29.89S HX  97
GREAT BEND     SUNNY    100  63  28 SW16G26   29.78F HX 102
LIBERAL        SUNNY    100  57  23 S15       29.91F HX  99
PRATT          SUNNY     95  61  31 SW22G32   29.86S HX  95
$$

KSZ066>073-081>083-090>101-252000-
SOUTHEAST KANSAS

CITY           SKY/WX    TMP DP  RH WIND       PRES   REMARKS
CHANUTE        SUNNY     92  72  51 SW20G28   29.88F HX  99
COFFEYVILLE    SUNNY     91  73  55 S16       29.90F HX  99
HUTCHINSON     MOSUNNY   99  65  32 SW20G30   29.82F HX 102
MEDICINE LODGE   N/A     99  64  31 SW20G29   29.83F HX 101
NEWTON         MOSUNNY   99  66  34 SW23G30   29.87S HX 102
PARSONS        SUNNY     91  73  55 S13G22    29.91F HX  99
WICHITA INTL   MOSUNNY   98  65  33 S21G30    29.83F HX 101
WICHITA JABRA  MOSUNNY   97  65  34 S17       29.84F HX  99
WICHITA MCCONL MOSUNNY   98  64  32 S18G25    29.85F HX 100
WINFIELD       SUNNY     97  71  42 SW20G25   29.87F HX 104
$$

KSZ007>012-019>026-033>040-048>060-102>105-252000-
NORTHEAST KANSAS

CITY           SKY/WX    TMP DP  RH WIND       PRES   REMARKS
CONCORDIA      MOSUNNY   98  66  34 SW13      29.77S HX 101
EMPORIA        SUNNY     97  68  38 S25       29.84F HX 102
LAWRENCE       SUNNY     98  71  41 SW15G21   29.82S HX 106
MANHATTAN      MOSUNNY  103  66  30 SW23G32   29.75F HX 107
MARYSVILLE     SUNNY    100  68  34 SW12G21   29.75F HX 106
OLATHE IND     SUNNY     95  71  45 S22G28    29.85S HX 102
OLATHE EXE     SUNNY     93  70  46 SW17G24   29.85S HX  99
SALINA         SUNNY    103  64  28 SW23G29   29.77F HX 106
TOPEKA BILLARD SUNNY    100  68  35 SW10G21   29.80S HX 105
TOPEKA FORBES  LGT RAIN 100  67  33 SW22G28   29.80F HX 105
$$


USA.gov is the U.S. government's official web portal to all federal, state and local government web resources and services.